Regional Weather Roundup
Issued by NWS

Home | Current Version | Previous Version | Graphics & Text | Print | Product List | Glossary On
Versions: 1 2 3 4 5 6 7 8 9 10 11 12 13 14 15 16 17 18 19 20 21 22 23 24 25 26 27 28 29 30 31 32 33 34 35 36 37 38 39 40 41 42 43 44 45 46 47 48 49 50
000
ASUS45 KABQ 202010
RWRNM
WEATHER ROUNDUP FOR NEW MEXICO
NATIONAL WEATHER SERVICE ALBUQUERQUE NM
200 PM MDT SUN APR 20 2014

NOTE: "FAIR" MEANS FEW OR NO CLOUDS BELOW 12,000 FEET AGL WITH NO
       SIGNIFICANT WEATHER OR OBSTRUCTIONS TO VISION.

      THIS PRODUCT IS RELEASED AS TWO VERSIONS.  ONE VERSION NEAR
      THE TOP OF THE HOUR CONTAINING PRELIMINARY DATA FROM ALBUQUERQUE
      AND OTHER STATIONS.  A FINAL VERSION WITH ADDITIONAL DATA IS
      ISSUED ABOUT 10 MINUTES AFTER THE HOUR.

NMZ501-503-504-510>518-202100-
NORTHWEST PLATEAU/NORTHCENTRAL MOUNTAINS

CITY           SKY/WX    TMP DP  RH WIND       PRES   REMARKS
FARMINGTON     SUNNY     72  32  23 W20G32    30.06F
LOS ALAMOS     MOSUNNY   59  37  44 CALM      30.15F
SANTA FE       MOSUNNY   68  34  28 SW17G23   30.09F
TAOS           CLOUDY    57  36  44 SW16      30.16F
ANGEL FIRE     CLOUDY    53  36  53 N7        30.19S

$$
NMZ402-403-502-505>509-202100-
WESTCENTRAL MOUNTAINS/SOUTHWEST MOUNTAINS

CITY           SKY/WX    TMP DP  RH WIND       PRES   REMARKS
GALLUP         LGT RAIN  60  36  40 E8        30.18F
GRANTS         PTSUNNY   67  29  24 N7G21     30.17F
SILVER CITY    MOSUNNY   68  32  26 W3        30.18S

$$
NMZ407-409-411-412-202100-
SOUTHERN DESERTS

CITY           SKY/WX    TMP DP  RH WIND       PRES   REMARKS
LORDSBURG      FAIR      70  37  30 W5        30.14F
DEMING         SUNNY     72  36  26 VRB6      30.12F
LAS CRUCES     MOSUNNY   73  32  22 SW8G17    30.14F
HOLLOMAN AFB   MOSUNNY   71  40  33 SE6       30.10F
ALAMOGORDO     MOSUNNY   68  39  34 SW7       30.13F
T OR C         MOSUNNY   70  38  31 VRB7G18   30.12F

$$
NMZ519>523-202100-
CENTRAL VALLEYS/CENTRAL HIGHLANDS

CITY           SKY/WX    TMP DP  RH WIND       PRES   REMARKS
ALBUQUERQUE    PTSUNNY   71  33  24 W15G24    30.09F
DOUBLE EAGLE   PTSUNNY   68  36  30 VRB6G17   30.12F
MORIARTY ARPT  FAIR      65  34  31 W21       30.13S
CLINES CORNERS MOSUNNY   65  33  30 W24G35    30.12F
BELEN          FAIR      72  37  27 NW6       30.10F
SOCORRO        LGT RAIN  66  46  48 S7        30.12R

$$
NMZ524>526-539-540-202100-
SOUTHCENTRAL MOUNTAINS

CITY           SKY/WX    TMP DP  RH WIND       PRES   REMARKS
RUIDOSO        SUNNY     63  36  36 NW12G23   30.20S

$$
NMZ527>531-202100-
NORTHEAST HIGHLANDS/NORTHEAST PLAINS

CITY           SKY/WX    TMP DP  RH WIND       PRES   REMARKS
LAS VEGAS      CLOUDY    56  42  59 E16       30.12R
RATON          LGT RAIN  51  44  77 N6        30.11F
CLAYTON        PTSUNNY   65  39  38 SW10      30.01S

$$
NMZ532>537-202100-
EASTCENTRAL PLAINS

CITY           SKY/WX    TMP DP  RH WIND       PRES   REMARKS
TUCUMCARI      PTSUNNY   72  47  40 VRB6      29.98F
CANNON AFB     MOSUNNY   72  41  33 SW14G23   30.01F
CLOVIS AIRPORT   N/A     72  45  37 W21G28    30.04F

$$
NMZ028-029-538-202100-
SOUTHEAST PLAINS

CITY           SKY/WX    TMP DP  RH WIND       PRES   REMARKS
ROSWELL        MOSUNNY   77  39  25 MISG      30.01F
ARTESIA        SUNNY     75  43  31 SW7       30.02F
CARLSBAD       SUNNY     78  43  28 W16G25    30.03F
HOBBS          PTSUNNY   75  43  31 SW16G23   30.05F


$$



USA.gov is the U.S. government's official web portal to all federal, state and local government web resources and services.